Weather History for Waukesha, WI

Change the Weather History Date:

Sunday, May 25, 2014

  Actual Average Record
Temperature  
Mean Temperature 61 °F -  
Max Temperature 78 °F 69 °F 87 °F (1977)
Min Temperature 44 °F 49 °F 36 °F (1992)
Degree Days  
Heating Degree Days 4    
Growing Degree Days 11 (Base 50)    
Moisture  
Dew Point 44 °F    
Average Humidity 60    
Maximum Humidity 87    
Minimum Humidity 31    
Precipitation  
Precipitation 0.00 in - - ()
Sea Level Pressure  
Sea Level Pressure 30.11 in    
Wind  
Wind Speed 2 mph (South)    
Max Wind Speed 9 mph    
Max Gust Speed -    
Visibility 10 miles    
Events      
Averages and records for this station are not official NWS values.
T = Trace of Precipitation, MM = Missing Value Source: NWS Daily Summary

Daily Weather History Graph

Daily Weather History Graph

Search for Another Location

Airport:

Trip Planner

Search our weather history database for the weather conditions in past years. The results will help you decide how hot, cold, wet, or windy it might be!

Date:

Astronomy

May. 25, 2014 Rise Set
Actual Time 5:20 AM CDT 8:19 PM CDT
Civil Twilight 4:46 AM CDT 8:53 PM CDT
Nautical Twilight 4:03 AM CDT 9:36 PM CDT
Astronomical Twilight 3:13 AM CDT 10:27 PM CDT
Moon 3:30 AM CDT (5/25) 5:15 PM CDT (5/25)
Length of Visible Light 16h 06m
Length of Day
14h 58m
Waning Crescent, 10% of the Moon is Illuminated
May 25
Waning Crescent
May 28
New
Jun 5
First Quarter
Jun 12
Full
Jun 19
Last Quarter

Hourly Weather History & Observations

Time (CDT) Temp. Dew Point Humidity Pressure Visibility Wind Dir Wind Speed Gust Speed Precip Events Conditions
12:15 AM 53.6 °F 41.0 °F 62% 30.15 in 10.0 mi South 3.5 mph - N/A   Clear
12:35 AM 53.6 °F 41.0 °F 62% 30.15 in 10.0 mi Calm Calm - N/A   Clear
12:55 AM 51.8 °F 42.8 °F 71% 30.15 in 10.0 mi Calm Calm - N/A   Clear
1:15 AM 51.8 °F 41.0 °F 67% 30.15 in 10.0 mi Calm Calm - N/A   Clear
1:35 AM 51.8 °F 41.0 °F 67% 30.15 in 10.0 mi South 3.5 mph - N/A   Clear
1:55 AM 51.8 °F 42.8 °F 71% 30.15 in 10.0 mi Calm Calm - N/A   Clear
2:15 AM 50.0 °F 42.8 °F 76% 30.15 in 10.0 mi Calm Calm - N/A   Clear
2:35 AM 50.0 °F 42.8 °F 76% 30.15 in 10.0 mi Calm Calm - N/A   Clear
2:55 AM 51.8 °F 42.8 °F 71% 30.15 in 10.0 mi Calm Calm - N/A   Clear
3:15 AM 50.0 °F 42.8 °F 76% 30.15 in 10.0 mi Calm Calm - N/A   Clear
3:35 AM 50.0 °F 42.8 °F 76% 30.15 in 10.0 mi Calm Calm - N/A   Clear
3:55 AM 50.0 °F 42.8 °F 76% 30.15 in 10.0 mi Calm Calm - N/A   Clear
4:15 AM 46.4 °F 41.0 °F 81% 30.15 in 10.0 mi Calm Calm - N/A   Clear
4:35 AM 46.4 °F 42.8 °F 87% 30.15 in 10.0 mi Calm Calm - N/A   Clear
4:55 AM 46.4 °F 42.8 °F 87% 30.15 in 10.0 mi Calm Calm - N/A   Clear
5:15 AM 46.4 °F 41.0 °F 81% 30.16 in 10.0 mi Calm Calm - N/A   Clear
5:35 AM 44.6 °F 41.0 °F 87% 30.15 in 10.0 mi Calm Calm - N/A   Clear
5:45 AM 46.4 °F 42.8 °F 87% 30.15 in 10.0 mi Calm Calm - N/A   Clear
6:45 AM 53.6 °F 44.6 °F 72% 30.15 in 10.0 mi Calm Calm - N/A   Clear
7:45 AM 59.0 °F 44.6 °F 59% 30.16 in 10.0 mi Calm Calm - N/A   Clear
8:45 AM 62.6 °F 44.6 °F 52% 30.16 in 10.0 mi South 9.2 mph - N/A   Clear
10:45 AM 71.6 °F 42.8 °F 35% 30.15 in 10.0 mi SSW 9.2 mph - N/A   Clear
11:45 AM 73.4 °F 44.6 °F 36% 30.14 in 10.0 mi Calm Calm - N/A   Clear
12:45 PM 75.2 °F 42.8 °F 31% 30.13 in 10.0 mi SSW 4.6 mph - N/A   Clear
1:45 PM 75.2 °F 44.6 °F 34% 30.11 in 10.0 mi SSW 4.6 mph - N/A   Clear
2:45 PM 78.8 °F 46.4 °F 32% 30.09 in 10.0 mi SSW 4.6 mph - N/A   Clear
3:45 PM 78.8 °F 46.4 °F 32% 30.06 in 10.0 mi SSW 4.6 mph - N/A   Clear
4:45 PM 78.8 °F 48.2 °F 34% 30.04 in 10.0 mi South 9.2 mph - N/A   Clear
5:45 PM 78.8 °F 48.2 °F 34% 30.03 in 10.0 mi SE 9.2 mph - N/A   Clear
6:45 PM 73.4 °F 46.4 °F 38% 30.03 in 10.0 mi SE 9.2 mph - N/A   Clear
8:45 PM 66.2 °F 48.2 °F 52% 30.03 in 10.0 mi SE 9.2 mph - N/A   Clear
9:15 PM 66.2 °F 46.4 °F 49% 30.04 in 10.0 mi South 5.8 mph - N/A   Clear
9:35 PM 64.4 °F 46.4 °F 52% 30.04 in 10.0 mi SSE 6.9 mph - N/A   Clear
9:55 PM 64.4 °F 46.4 °F 52% 30.05 in 10.0 mi South 4.6 mph - N/A   Clear
10:15 PM 62.6 °F 46.4 °F 55% 30.05 in 10.0 mi South 5.8 mph - N/A   Clear
10:35 PM 64.4 °F 46.4 °F 52% 30.05 in 10.0 mi South 4.6 mph - N/A   Clear
10:55 PM 62.6 °F 46.4 °F 55% 30.05 in 10.0 mi South 4.6 mph - N/A   Clear
11:15 PM 62.6 °F 46.4 °F 55% 30.04 in 10.0 mi South 4.6 mph - N/A   Clear
11:35 PM 62.6 °F 46.4 °F 55% 30.04 in 10.0 mi South 5.8 mph - N/A   Clear
11:55 PM 62.6 °F 46.4 °F 55% 30.04 in 10.0 mi South 4.6 mph - N/A   Clear